19lou.com alexa rank chart, 19lou.com alexa rank daily changes

19lou.com alexa rank chart, 19lou.com alexa rank daily changes

19lou.com
Actual rank:
7 355

RANK HISTORY

Date Rank Diff
2017/12/13 7 355 -265
2017/12/12 7 620 -224
2017/12/11 7 844 -64
2017/12/10 7 908 -281
2017/12/09 8 189 +263
2017/12/08 7 926 +153
2017/12/07 7 773 +146
2017/12/06 7 627 -151
2017/12/05 7 778 +279
2017/12/04 7 499 +250
2017/12/03 7 249 -20
2017/12/02 7 269 +16
2017/12/01 7 253 -224
2017/11/30 7 477 -67
2017/11/29 7 544 +106
2017/11/28 7 438 -9
2017/11/27 7 447 +217
2017/11/26 7 230 +43
2017/11/25 7 187 +136
2017/11/24 7 051 -98
2017/11/23 7 149 -94
2017/11/22 7 243 +19
2017/11/21 7 224 +144
2017/11/20 7 080 +56
2017/11/19 7 024 -19
2017/11/18 7 043 -23
2017/11/17 7 066 +52
2017/11/16 7 014 +37
2017/11/15 6 977 +86
2017/11/14 6 891 +30
2017/11/13 6 861 -35
2017/11/12 6 896 +138
2017/11/11 6 758 +215
2017/11/10 6 543 +220
2017/11/09 6 323 -87
2017/11/08 6 410 -27
2017/11/07 6 437 -75
2017/11/06 6 512 +11
2017/11/05 6 501 -105
2017/11/04 6 606 -162
2017/11/03 6 768 -70
2017/11/02 6 838 -6
2017/11/01 6 844 +207
2017/10/31 6 637 -77
2017/10/30 6 714 -165
2017/10/29 6 879 +22
2017/10/28 6 857 +91
2017/10/27 6 766 +17
2017/10/26 6 749 -45
2017/10/25 6 794 +10
2017/10/24 6 784 +32
2017/10/23 6 752 -10
2017/10/22 6 762 -197
2017/10/21 6 959 +22
2017/10/20 6 937 +98
2017/10/19 6 839 -204
2017/10/18 7 043 -115
2017/10/17 7 158 -9
2017/10/16 7 167 -235
2017/10/14 7 402

WIDGET FOR YOUR SITE

DOMAINS WITH THE NEAREST RANK

Domain Rank
ngoisao.net 7 350
bashirian.biz 7 351
pchome.net 7 352
goal.in.th 7 353
admitad.com 7 354
19lou.com 7 355
gigabyte.com 7 356
alef.ir 7 357
cocohk.cc 7 358
free-power-point-templates.com 7 359
dnevnik.hr 7 360

DOMAINS WITH THE NEAREST RANK BY TLD .com

Domain Rank
animemovil.com 7 337
easy-sexxx.com 7 342
giveawayoftheday.com 7 344
aldoshoes.com 7 349
admitad.com 7 354
19lou.com 7 355
gigabyte.com 7 356
free-power-point-templates.com 7 359
pureflix.com 7 365
dramakoreaindo.com 7 366
skynewsarabia.com 7 367